Presure
199 190 186 195 166 203 136 181 111 190 170 195 191 158 191 188 185 191 187 188 199 139 75 198 136 209 209 198 106 107 147 151 186 172 132 131 129 132 131 132 131 120 116 126 143 134 129 132 131
159 128 171 192 158 201 193 191 202 192 191 174 176 150 145 201 202 185 162 186 198 215 185 198 220 217 205 207 195 183 211 226 226 192 218 237 233 243 188 197 197 227 173 244 134 139 187 132 135
160 177 188 194 130 172 180 199 164 132 153 183 188 126 130 133 185 183 203 186 175 162 211 191 168 162 206 186 214 221 189 140 194 213 210 217 227 227 229 228 230 229 234 212 256 248 243 238 237
119 129 177 107 190 137 200 181 198 125 171 178 173 130 161 197 198 197 198 202 214 197 152 138 191 165 180 179 191 197 193 213 202 188 212 208 142 196 225 218 224 226 195 197 208 197 196 252 242
174 168 185 176 187 172 196 172 188 183 158 194 179 109 184 168 128 172 208 191 137 131 173 197 218 202 181 169 131 178 182 172 149 205 213 154 160 212 210 208 221 218 216 198 213 202 237 246 229
183 173 172 193 181 185 120 103 142 187 175 189 121 149 147 154 175 199 157 125 152 160 205 209 194 220 181 130 194 141 128 138 182 126 158 184 156 211 195 210 226 217 217 207 205 213 254 243 246
163 127 161 151 189 175 192 166 208 190 161 123 161 177 147 169 191 196 180 121 156 187 215 191 211 212 153 206 201 177 196 191 171 181 183 164 195 162 151 188 199 206 196 203 199 195 190 189 220
180 152 181 176 148 179 168 159 165 197 198 188 181 173 185 199 162 126 106 183 161 185 118 212 202 194 102 209 208 208 196 188 144 146 193 179 127 152 144 190 210 193 196 193 192 195 173 220 196
173 155 180 177 173 174 125 179 179 143 124 157 177 190 141 179 181 187 179 173 164 142 148 72 218 191 67 195 208 210 204 202 195 186 192 193 193 187 194 192 152 202 189 189 200 207 219 191 201
175 172 170 169 173 148 181 130 180 182 164 141 185 164 189 175 196 197 180 164 211 199 142 222 202 181 197 232 203 180 199 203 200 205 196 192 190 196 144 161 183 168 181 168 206 210 192 190 193
165 157 172 167 174 175 148 170 174 170 152 189 110 182 190 189 195 197 178 139 206 192 150 146 199 214 184 189 148 186 210 203 203 213 206 201 183 209 216 193 181 175 170 181 189 186 181 175 198
174 183 174 176 182 179 183 171 109 176 180 183 186 190 186 196 195 191 198 177 207 199 203 206 211 171 218 205 175 187 197 122 156 193 213 200 205 182 184 179 178 172 192 177 211 177 177 184 168
174 172 176 175 183 186 179 176 174 187 188 182 189 193 181 176 198 191 190 206 193 202 199 202 207 168 204 238 206 182 206 195 181 127 167 120 131 165 179 169 173 173 180 201 177 185 171 170 175
179 175 180 180 192 190 180 174 174 177 190 199 190 201 197 196 185 194 197 203 190 197 214 212 198 202 150 215 195 215 181 214 219 178 186 132 203 148 174 174 181 181 180 190 191 179 186 179 176
181 181 185 194 181 184 192 189 187 185 200 204 203 199 192 188 198 195 197 195 199 209 204 207 200 131 201 207 205 215 152 207 194 177 201 144 160 162 141 148 138 176 170 184 191 170 179 170 163
191 192 184 184 176 178 181 187 189 195 183 199 193 194 191 199 196 200 191 198 192 190 202 195 190 194 202 209 208 207 214 222 183 182 167 165 196 174 171 185 169 166 188 159 151 173 171 188 184
195 175 188 184 173 175 184 193 184 186 190 197 197 192 188 191 192 190 180 190 194 192 198 197 191 184 195 203 195 198 210 213 216 214 203 213 149 173 184 164 182 168 161 181 166 163 157 134 188
178 195 179 195 185 182 175 188 183 173 180 186 189 189 189 195 195 204 185 190 198 190 190 192 194 199 198 203 206 194 194 209 205 210 216 177 211 172 174 167 181 192 162 156 170 171 137 140 158
194 191 181 175 172 185 185 173 208 199 190 182 188 194 207 207 198 182 173 184 182 182 181 192 201 194 199 203 196 208 201 220 227 247 206 172 175 236 173 172 159 180 162 175 147 157 180 178 171
188 186 182 198 195 193 189 182 173 180 206 209 192 204 209 203 171 172 199 183 189 178 184 192 179 195 192 206 206 225 259 232 232 259 260 252 196 198 178 163 186 159 160 168 167 169 181 164 165
189 182 177 186 158 188 184 179 200 185 199 197 200 197 194 192 181 222 212 208 194 216 213 224 229 153 232 184 232 260 255 275 279 267 156 268 204 187 204 171 184 180 177 169 152 186 161 175 170
186 199 174 210 183 196 200 201 210 202 183 187 191 199 204 191 186 206 204 214 225 228 239 238 241 281 287 290 179 308 339 333 288 292 285 245 206 185 200 185 178 189 185 170 166 164 171 153 162
164 201 183 171 190 210 209 200 160 147 185 184 202 212 208 197 208 271 228 287 263 278 260 145 131 208 286 356 362 364 351 349 363 366 295 278 293 181 166 171 185 177 198 173 198 177 180 170 158
210 207 194 169 209 171 194 190 123 180 158 86 195 161 221 147 282 267 284 271 168 239 159 306 349 254 307 182 318 319 308 334 339 346 353 363 275 289 166 195 232 185 179 159 156 169 163 167 163
206 200 209 202 193 188 208 194 121 100 204 189 211 228 279 276 270 214 241 285 348 367 250 335 330 319 110 299 254 306 306 256 321 331 337 336 367 289 248 204 183 173 192 186 175 134 174 177 176
210 214 210 214 233 186 195 194 207 222 235 265 265 259 277 107 298 171 369 349 329 228 317 305 298 292 292 293 297 237 276 303 309 323 319 327 345 363 293 186 247 185 238 182 189 197 188 182 183
212 197 195 170 236 207 175 169 212 236 270 257 260 278 171 296 350 327 321 303 290 289 284 281 280 282 286 293 296 282 100 302 199 310 320 321 332 353 339 280 282 196 251 193 207 165 202 237 191
214 208 177 180 198 208 225 242 271 255 270 288 289 300 337 323 311 303 291 284 281 281 278 281 280 213 287 287 208 296 301 121 252 306 315 311 322 330 334 302 291 266 216 226 221 198 167 219 192
212 211 225 209 254 261 261 268 257 293 299 299 314 319 306 296 285 260 260 271 276 274 275 271 275 280 340 292 279 305 311 292 298 293 299 311 311 322 322 276 292 279 265 249 244 223 236 207 176
190 182 221 237 249 255 254 312 290 293 303 325 308 288 285 286 276 272 276 277 276 272 271 270 272 330 305 286 276 274 280 281 294 308 315 303 298 310 322 330 277 287 275 262 259 261 249 258 251
Wind_Speed
38 40 47 46 48 45 53 50 51 43 47 42 48 60 61 62 62 63 66 64 62 57 24 50 41 62 62 65 30 33 57 62 59 66 64 64 63 66 65 66 65 55 48 57 69 63 59 62 61
42 49 48 47 45 44 46 45 40 45 48 57 64 61 59 50 50 61 61 61 57 58 57 61 53 53 60 61 64 64 53 39 41 69 52 34 39 31 65 59 61 45 60 45 64 67 54 64 65
59 47 43 43 46 45 43 42 48 57 57 59 54 51 52 55 57 59 56 61 67 65 56 62 62 58 56 55 51 44 57 63 49 46 51 45 35 37 37 40 38 38 38 41 38 41 41 45 49
49 48 50 45 44 41 41 44 41 48 58 61 64 53 58 60 56 57 59 59 56 55 58 62 62 59 61 62 58 55 56 45 52 60 40 47 43 61 36 38 37 37 64 62 53 59 59 31 39
50 50 52 56 48 45 41 51 47 51 54 54 62 48 65 63 58 61 57 64 61 57 60 56 53 62 60 61 58 60 63 63 64 44 35 56 57 41 41 42 38 36 36 52 37 45 35 31 38
57 53 57 58 56 50 55 44 56 55 60 56 51 58 58 63 59 60 63 60 60 55 52 49 53 51 60 62 63 58 58 43 63 55 51 51 54 43 44 38 37 36 31 36 37 32 32 34 36
57 54 58 52 58 56 51 64 46 56 57 50 58 66 59 67 61 57 60 51 65 58 55 47 47 49 62 57 59 60 58 60 63 60 57 68 48 59 62 41 38 35 37 34 34 37 44 47 39
65 62 62 62 64 59 61 54 69 48 56 59 64 56 60 50 67 67 52 59 55 63 26 53 55 48 43 53 55 55 58 58 66 64 54 53 56 55 61 43 36 35 34 37 36 35 49 35 39
66 66 66 63 63 63 57 62 63 61 55 57 64 65 59 63 61 57 55 61 56 58 50 23 55 44 19 50 53 57 58 57 57 60 54 50 50 45 38 40 40 32 34 33 34 33 35 34 35
74 72 67 64 67 57 70 57 68 68 66 58 66 64 62 63 57 57 57 57 48 53 45 51 52 48 58 51 52 61 56 58 57 54 54 49 44 41 63 46 35 37 36 34 38 36 32 37 35
72 67 73 69 70 72 64 71 72 72 64 72 60 73 68 63 61 60 65 68 52 52 68 62 59 57 53 61 51 53 61 58 54 54 53 48 48 38 37 34 41 46 55 41 32 31 34 43 34
77 76 75 74 75 72 75 77 56 80 79 72 68 73 71 67 60 63 58 63 51 50 50 52 56 69 64 64 50 59 59 52 51 50 52 48 42 38 33 41 40 49 35 43 42 45 36 36 48
78 74 77 77 77 74 72 75 80 86 80 78 75 71 68 66 62 66 64 65 63 54 59 55 56 68 62 58 68 59 61 59 55 56 47 55 57 48 31 52 54 56 42 43 45 35 48 49 39
78 80 79 78 74 72 71 77 80 79 80 76 77 70 66 65 66 65 67 67 64 59 69 62 59 58 67 64 59 66 53 60 52 53 55 63 40 56 39 47 48 48 47 40 40 38 51 48 40
82 78 79 72 74 74 73 77 78 79 68 70 70 68 66 67 69 69 69 66 67 76 69 67 60 52 66 65 65 67 61 64 57 52 46 53 65 64 71 73 64 39 57 44 48 46 45 49 49
80 75 78 74 69 72 72 72 76 72 80 74 68 69 71 75 74 77 72 77 69 69 74 67 68 68 69 71 70 70 70 69 53 50 63 65 45 48 57 38 52 59 36 46 58 47 45 64 58
79 75 75 77 74 75 71 71 74 73 74 78 75 73 72 77 83 82 72 76 79 78 78 75 74 69 72 74 74 76 77 74 73 71 67 59 60 59 47 60 34 54 57 41 43 48 54 41 55
78 73 73 74 74 66 75 81 74 79 73 77 79 77 78 81 77 87 82 86 88 79 79 78 80 84 82 79 80 73 75 82 77 75 76 57 62 62 63 72 59 60 59 53 39 44 54 55 53
78 75 69 77 73 74 80 77 83 80 75 76 81 82 84 80 78 80 77 84 81 78 74 87 94 86 89 91 79 91 88 101 100 101 82 72 66 67 72 76 72 49 58 42 64 62 57 53 55
79 74 69 90 87 79 78 76 81 78 89 88 81 81 87 84 76 77 86 83 88 77 82 91 71 90 86 99 98 110 112 109 100 103 96 94 76 71 74 75 67 75 71 52 54 69 59 60 57
86 70 68 70 81 80 76 84 83 86 85 86 84 84 87 89 88 99 92 90 85 94 97 105 109 68 115 81 113 107 100 101 95 90 70 98 71 78 74 84 79 76 63 61 64 60 64 69 63
82 96 77 94 72 83 90 83 94 83 86 85 88 93 99 93 90 99 97 104 108 111 117 117 121 97 98 97 57 94 90 93 93 93 96 93 76 85 74 81 83 82 73 76 71 66 73 63 75
82 94 87 83 72 95 94 81 85 66 83 91 99 108 106 101 110 104 116 95 108 96 95 56 52 72 94 72 64 64 62 63 67 77 92 92 99 84 78 85 84 92 80 80 85 79 75 76 59
103 97 83 76 99 86 77 82 42 85 64 17 100 75 110 62 99 98 93 95 70 88 51 82 58 51 54 37 52 52 52 52 57 64 67 73 95 100 75 78 88 96 95 72 65 84 80 83 74
105 96 106 100 82 79 94 81 45 28 98 89 105 82 100 98 98 75 82 91 66 52 40 50 51 48 40 46 48 47 46 44 48 54 63 68 68 97 97 91 78 84 90 94 93 59 90 90 90
110 112 106 106 118 81 86 83 94 112 113 103 101 99 97 40 90 48 44 37 39 34 38 38 40 41 42 42 43 48 45 36 37 45 49 55 60 73 98 90 96 93 92 83 93 102 99 105 102
110 93 91 85 119 100 86 86 107 111 106 102 99 96 52 88 55 50 41 39 39 37 36 36 38 41 43 41 41 39 29 36 32 35 44 42 50 60 78 94 96 102 97 98 92 88 100 100 110
115 107 94 98 99 101 105 102 106 102 101 96 89 85 62 54 47 42 40 39 37 36 37 35 36 35 37 36 32 33 33 58 33 28 32 36 39 53 70 89 91 99 99 95 94 96 93 99 102
111 107 115 105 117 112 107 102 102 91 85 79 68 55 49 46 45 43 42 40 37 37 38 37 41 32 19 23 25 18 18 26 24 24 22 27 33 39 59 77 84 94 102 99 96 101 98 108 107
91 98 108 111 106 107 105 76 80 79 68 55 48 49 50 44 42 44 42 38 35 36 37 37 30 12 6 6 8 7 6 6 4 4 11 20 24 30 38 53 77 87 98 101 100 103 101 107 108
Wind_Direction
300 286 281 280 276 277 263 281 266 278 268 274 277 263 269 268 268 272 269 269 273 267 273 274 269 273 274 272 259 258 274 271 273 270 269 270 270 270 270 269 269 273 269 275 271 276 277 277 276
280 272 285 284 275 279 278 280 273 268 268 266 272 264 270 273 275 271 272 272 275 281 279 273 277 275 274 278 274 272 277 286 284 273 280 286 287 298 276 277 278 287 276 291 273 272 279 275 274
280 286 295 292 268 284 283 282 272 264 267 269 271 271 274 274 273 275 278 273 270 267 275 275 265 271 277 274 279 279 274 265 277 281 280 285 295 295 300 292 292 293 299 290 296 291 290 287 284
261 265 282 274 287 267 286 282 279 274 275 273 275 272 275 279 280 281 280 282 290 277 273 271 274 271 269 271 274 275 274 280 277 275 284 280 277 281 308 295 301 298 281 283 286 286 287 297 292
286 287 289 283 282 279 296 280 275 276 274 273 273 272 277 277 273 276 293 284 272 272 272 275 271 273 273 270 263 270 271 269 269 277 281 271 274 287 293 291 301 299 296 286 299 291 297 298 293
294 288 282 290 283 289 272 275 275 268 275 269 273 271 264 277 279 288 275 274 278 280 285 284 279 273 269 265 274 268 266 274 272 267 272 278 276 293 286 301 306 300 302 292 296 308 318 317 314
286 270 286 277 292 282 288 279 283 270 268 274 273 279 274 279 285 289 283 271 277 286 291 276 284 279 267 274 274 271 275 274 267 270 269 266 284 271 273 287 289 299 288 297 297 293 292 291 310
294 277 288 289 279 291 280 276 280 284 279 277 273 273 278 287 287 266 271 287 284 289 276 282 280 270 265 265 266 268 267 267 266 267 272 272 269 275 278 281 290 284 288 288 289 305 282 322 302
289 282 290 289 287 286 277 284 280 265 271 280 278 281 273 284 283 285 288 286 283 283 273 262 287 279 277 275 270 268 268 268 266 265 269 273 276 271 284 282 276 290 285 292 306 316 321 308 308
290 288 284 284 290 282 292 276 291 290 284 277 285 280 286 279 284 288 287 285 300 293 284 292 281 268 280 273 271 270 267 267 268 267 269 272 275 282 272 269 272 269 279 277 314 311 303 302 304
284 281 283 282 287 288 277 287 287 282 274 287 261 288 288 288 289 293 281 267 296 286 278 279 282 277 271 274 268 267 267 269 270 266 269 269 265 279 280 272 270 269 267 276 298 289 276 280 320
284 283 283 284 286 287 285 286 274 284 283 289 287 287 286 290 296 288 295 277 292 281 286 288 280 278 272 272 257 267 267 260 271 269 263 266 262 254 259 266 268 271 297 285 315 276 276 304 278
282 282 283 286 288 287 283 283 282 284 288 287 286 284 286 287 292 290 288 299 290 286 284 277 281 270 271 272 268 268 277 263 263 263 266 270 270 275 255 260 265 260 270 313 269 301 270 273 275
280 282 282 283 284 283 282 281 280 284 286 284 282 288 289 290 287 294 294 296 285 284 295 286 274 278 269 279 273 263 260 267 263 258 262 264 250 264 242 260 266 270 279 295 298 287 303 287 276
282 281 281 281 281 283 284 282 282 280 283 286 287 289 287 287 292 291 291 290 291 297 292 289 276 270 273 275 273 274 268 259 256 252 241 255 256 253 267 268 266 269 267 289 300 265 289 268 270
282 282 284 283 277 280 280 281 281 281 282 288 288 290 290 296 294 295 291 298 291 284 285 276 273 272 277 281 280 275 276 271 255 247 246 252 240 238 241 238 251 259 268 270 262 286 277 298 288
280 280 281 280 277 280 281 284 279 283 290 295 297 296 292 296 294 293 288 288 285 281 282 281 279 276 278 279 271 274 279 271 267 261 255 249 253 238 215 253 245 260 263 265 262 266 281 253 288
281 281 276 282 279 278 279 285 285 282 288 290 291 290 290 291 289 285 283 284 284 283 284 282 280 280 278 279 278 269 270 272 266 261 259 234 240 239 235 253 223 240 265 266 268 260 265 264 274
279 279 277 276 273 283 283 274 289 289 285 283 287 290 291 287 278 275 283 279 280 281 280 282 281 279 282 281 277 280 277 278 276 272 257 241 227 236 232 243 261 225 251 227 270 269 255 264 267
282 277 274 286 284 283 282 281 276 284 291 292 287 291 290 281 282 282 280 280 276 283 282 280 274 279 276 279 277 280 269 273 269 266 259 256 241 238 229 247 232 258 256 240 250 257 250 261 262
282 274 270 277 274 280 275 281 291 284 289 288 289 283 278 276 277 286 280 276 277 277 280 277 278 268 277 272 280 274 268 266 261 255 255 249 244 242 230 234 229 229 232 240 268 254 262 252 256
277 282 266 285 270 286 289 289 292 289 282 282 282 286 286 280 282 288 285 287 287 287 284 282 283 278 278 278 268 273 265 260 257 250 247 248 249 248 220 220 230 215 222 248 254 258 242 267 263
266 282 277 270 275 287 289 283 276 286 280 280 290 289 287 286 288 290 285 287 284 285 283 270 264 273 280 273 274 271 268 264 256 254 244 244 240 223 254 239 228 232 217 242 221 235 234 252 257
282 282 279 281 287 271 278 273 276 274 277 248 280 284 286 278 291 288 288 284 272 283 285 281 271 271 273 277 270 268 268 264 259 250 251 251 241 237 248 232 229 224 233 258 264 243 255 256 266
284 285 286 286 281 277 285 276 263 273 287 280 288 290 292 291 289 287 286 288 285 281 274 272 274 275 279 272 269 271 270 257 258 251 246 245 249 235 228 227 244 233 233 230 236 257 244 243 248
282 284 285 284 286 272 283 279 293 289 290 293 291 289 293 269 293 284 288 283 283 278 282 280 276 275 273 269 266 264 262 267 269 253 244 247 249 239 232 227 232 232 233 244 230 232 237 238 241
280 281 283 281 285 285 275 283 289 289 293 291 292 295 285 292 288 288 286 284 284 286 282 278 276 272 271 273 273 270 271 268 261 260 248 244 248 243 230 232 229 227 230 220 237 253 230 233 236
280 284 281 280 285 290 290 292 296 292 293 292 292 290 286 286 288 286 283 282 283 281 281 283 279 272 282 284 277 282 275 261 269 259 250 242 244 240 229 230 230 229 229 233 237 231 250 237 240
282 285 287 285 294 296 296 296 293 291 290 291 288 285 284 283 283 282 282 282 284 282 281 280 279 290 279 288 280 290 287 273 272 261 253 244 240 242 233 229 231 231 231 235 238 236 239 240 245
280 276 288 290 294 296 295 294 292 289 291 281 280 280 281 281 280 279 280 279 278 275 278 278 287 258 231 228 251 285 298 269 284 258 249 249 244 239 239 236 231 233 234 236 238 239 239 240 240